This is the latest recevied weather packets stored in our database for station/object KN6KS. If no packets are shown the sender has not sent any weather packets the latest 10 day(s).
| Time | Temp. | Humidity | Pressure | Rain* | Wind** | Luminosity | Snow |
|---|---|---|---|---|---|---|---|
| 1777685937 | 24.44° C | 36% | 1010.9 hPa | 0 mm | - | 54 W/m² | - |
| 1777685633 | 25° C | 37% | 1010.9 hPa | 0 mm | - | 78 W/m² | - |
| 1777685330 | 25° C | 36% | 1010.7 hPa | 0 mm | - | 90 W/m² | - |
| 1777685028 | 25° C | 35% | 1010.9 hPa | 0 mm | - | 80 W/m² | - |
| 1777684725 | 25.56° C | 34% | 1010.9 hPa | 0 mm | - | 98 W/m² | - |
| 1777684421 | 25.56° C | 33% | 1011 hPa | 0 mm | - | 119 W/m² | - |
| 1777684118 | 25.56° C | 34% | 1010.9 hPa | 0 mm | - | 149 W/m² | - |
| 1777683814 | 25.56° C | 34% | 1011 hPa | 0 mm | - | 159 W/m² | - |
| 1777683511 | 25.56° C | 34% | 1010.7 hPa | 0 mm | - | 175 W/m² | - |
| 1777683209 | 26.11° C | 34% | 1010.6 hPa | 0 mm | - | 196 W/m² | - |
| 1777682906 | 26.11° C | 33% | 1010.9 hPa | 0 mm | - | 218 W/m² | - |
| 1777682602 | 26.11° C | 33% | 1010.7 hPa | 0 mm | - | 233 W/m² | - |
| 1777682301 | 26.67° C | 31% | 1010.9 hPa | 0 mm | - | 246 W/m² | - |
| 1777681997 | 26.67° C | 30% | 1010.9 hPa | 0 mm | - | 275 W/m² | - |
| 1777681688 | 26.67° C | 28% | 1010.6 hPa | 0 mm | - | 254 W/m² | - |
| 1777681385 | 26.67° C | 27% | 1010.6 hPa | 0 mm | - | 303 W/m² | - |
| 1777681083 | 27.22° C | 27% | 1010.7 hPa | 0 mm | - | 321 W/m² | - |
| 1777680780 | 26.67° C | 27% | 1010.6 hPa | 0 mm | - | 321 W/m² | - |
| 1777680478 | 27.22° C | 28% | 1010.9 hPa | 0 mm | - | 347 W/m² | - |
| 1777680176 | 27.22° C | 27% | 1010.7 hPa | 0 mm | - | 366 W/m² | - |
| 1777679876 | 27.22° C | 27% | 1010.7 hPa | 0 mm | - | 375 W/m² | - |
| 1777679572 | 27.78° C | 24% | 1010.6 hPa | 0 mm | - | 395 W/m² | - |
| 1777679268 | 27.78° C | 25% | 1010.7 hPa | 0 mm | - | 394 W/m² | - |
| 1777678965 | 27.78° C | 25% | 1010.7 hPa | 0 mm | - | 404 W/m² | - |
| 1777678664 | 27.78° C | 24% | 1010.9 hPa | 0 mm | - | 436 W/m² | - |
* Rain latest hour (hover to see other rain measurements)
** Current wind speed in m/s (hover to see current wind gust speed)